Regional Weather Roundup
Issued by NWS

Home | Current Version | Previous Version | Graphics & Text | Print | Product List | Glossary On
Versions: 1 2 3 4 5 6 7 8 9 10 11 12 13 14 15 16 17 18 19 20 21 22 23 24 25 26 27 28 29 30 31 32 33 34 35 36 37 38 39 40 41 42 43 44 45 46 47 48 49 50
000
ASUS43 KLOT 301600
RWRIL

ILLINOIS REGIONAL WEATHER ROUNDUP
NATIONAL WEATHER SERVICE CHICAGO/ROMEOVILLE IL
1000 AM CST FRI JAN 30 2015

NOTE: "FAIR" INDICATES FEW OR NO CLOUDS BELOW 12,000 FEET WITH NO
SIGNIFICANT WEATHER AND/OR OBSTRUCTIONS TO VISIBILITY.

* THESE STATIONS ARE NOT UNDER NWS QUALITY CONTROL. THEY ALSO MAY NOT
  REPORT WEATHER SUCH AS PRECIPITATION OR FOG.

ILZ001-002-007-009-015-016-024-301700-
NORTHWEST ILLINOIS

CITY           SKY/WX    TMP DP  RH WIND       PRES   REMARKS
MOLINE         SUNNY     24  11  57 NE5       30.57R WCI  18
STERLING*      MOSUNNY   25  10  54 NE8       30.55S WCI  16
$$

ILZ003-004-008-010-011-017-018-301700-
NORTH CENTRAL ILLINOIS

CITY           SKY/WX    TMP DP  RH WIND       PRES   REMARKS
ROCKFORD       PTSUNNY   23   8  52 N7        30.56R WCI  15
$$

ILZ005-006-012>014-019>023-301700-
NORTHEAST ILLINOIS

CITY           SKY/WX    TMP DP  RH WIND       PRES   REMARKS
CHICAGO-OHARE  PTSUNNY   23   7  50 N8        30.52R WCI  14
CHICAGO-MIDWAY PTSUNNY   27   9  46 NW9       30.52R WCI  18
AURORA         MOSUNNY   25   9  50 NE9       30.53R WCI  15
WAUKEGAN       SUNNY     23   8  52 NW7       30.51R WCI  15
DUPAGE AIRPORT MIX PCPN  24   9  52 N9        30.51R WCI  14
WHEELING       SUNNY     24   7  48 NW8       30.53R WCI  15
NORTHERLY ISL    N/A     25  12  58 MISG        N/A
$$

LMZ740>746-301700-
SOUTHERN LAKE MICHIGAN

STATION/POSITION SKY/WX   TEMP    WIND        PRES    VSBY  WAVE
                          AIR SEA DIR/SP/G                  HT/PER
                          (F)     (DEG/KT/KT) (MB)    (MI)  (FT/S)
WAUKEGAN HARBOR            22     340/  7/ 11   N/A
HARRISON CRIB              22     320/ 12/ 15   N/A
BURNHAM HARBOR             26     350/ 10/ 12   N/A
CALUMET HARBOR             25     340/  9/ 11   N/A
MICHIGAN CITY              25     340/ 17/ 20   N/A
$$

ILZ025>027-034>036-040-047-049-050-058-095>099-301700-
WEST-CENTRAL ILLINOIS

CITY           SKY/WX    TMP DP  RH WIND       PRES   REMARKS
QUINCY         SUNNY     27  16  63 NE7       30.56R WCI  19
$$

ILZ028>032-037-038-041>044-048-051>054-059>061-301700-
CENTRAL ILLINOIS

CITY           SKY/WX    TMP DP  RH WIND       PRES   REMARKS
DECATUR        SUNNY     31  19  61 NE7       30.54R WCI  24
PEORIA         SUNNY     29  16  58 NE7       30.56R WCI  22
SPRINGFIELD    SUNNY     30  18  60 N8        30.56R WCI  22
TAYLORVILLE    NOT AVBL
$$

ILZ033-039-045-046-055>057-062-063-301700-
EAST-CENTRAL ILLINOIS

CITY           SKY/WX    TMP DP  RH WIND       PRES   REMARKS
CHAMPAIGN      SUNNY     30  16  56 N9        30.53R WCI  22
MATTOON        MOSUNNY   30  19  63 N12       30.53R WCI  20
$$

ILZ079-100>102-301700-
SOUTHWEST ILLINOIS

CITY           SKY/WX    TMP DP  RH WIND       PRES   REMARKS
BELLEVILLE     SUNNY     33  21  61 NE8       30.55F WCI  26
CAHOKIA*       SUNNY     32  19  58 NE9       30.56F WCI  24
$$

ILZ064>066-069>071-074>076-080>082-084>086-088>090-092>094-301700-
SOUTH-CENTRAL ILLINOIS

CITY           SKY/WX    TMP DP  RH WIND       PRES   REMARKS
CARBONDALE     PTSUNNY   33  20  58 N10G20    30.56R WCI  25
MARION         PTSUNNY   34  21  60 N9        30.56R WCI  26
MT. VERNON     MOSUNNY   34  19  55 N6        30.56R WCI  29
$$

ILZ067-068-072-073-078-083-087-091-301700-
SOUTHEAST ILLINOIS

CITY           SKY/WX    TMP DP  RH WIND       PRES   REMARKS
LAWRENCEVILLE  MOSUNNY   33  22  63 N9        30.54R WCI  25
$$

ABBREVIATIONS USED IN REMARKS
   TC - TEMPERATURE IN CELSIUS
  WCI - WIND CHILL INDEX
   HX - HEAT INDEX
  VSB - VISIBILITY
$$



USA.gov is the U.S. government's official web portal to all federal, state and local government web resources and services.